Tracking 19969 objects as of 12-Nov-2019
Live streaming from Space Station
objects crossing your sky now
Track the group of recently launched Starlink satellites

THORAD DELTA 1 DEB

Track THORAD DELTA 1 DEB now!
10-day predictions


NORAD ID: 8397
Int'l Code: 1974-089BZ
Perigee: 904.8 km
Apogee: 962.6 km
Inclination: 101.7 °
Period: 103.6 minutes
Semi major axis: 7304 km
RCS: 0.0525 m2 (small)
Launch date: November 15, 1974
Source: United States (US)
Launch site: AIR FORCE WESTERN TEST RANGE (AFWTR)

Note: This is SATELLITE DEBRIS
aabbcc
Your satellite tracking list
Your tracking list is empty




NASA's NSSDC Master Catalog

Two Line Element Set (TLE):
1  8397U 74089BZ  19315.86544208  .00003531  00000-0  28671-2 0  9999
2  8397 101.7176 266.7112 0039586 323.1461  59.9091 13.90582982171793
Source of the keplerian elements: AFSPC